Location: Seasalter
(51.3333°N, 1.0167°E)
Time: 18:23:25
(UTC+00:00)

NOSS 3 (A) - Pass Details

Date: 26 September 2023
Orbit: 160 x 953 km, 63.3° (Epoch: 23 April)

Event Time Altitude Azimuth Distance (km) Brightness Sun altitude
Exits shadow 05:04:33 14° 259° (W) 587 4.8 -7.6°
Maximum altitude 05:05:37 31° 320° (NW) 332 4.0 -7.4°
Drops below altitude 10° 05:07:10 10° 28° (NNE) 797 6.7 -7.2°
Sets 05:09:05 0° 40° (NE) 1,634 8.6 -6.9°
